| time (UTC) | temp F | wind direction | speed knots | gust knots | rain 1hr in | rain 24hr in | rain mn in | humidity % | barometer mb |
| 20260504215008 | 78 | 166 | 3.5 | 7.8 | 0.00 | 0.00 | 0.00 | 34 | 1014.2 |
| 20260504214504 | 78 | 138 | 6.1 | 6.1 | 0.00 | 0.00 | 0.00 | 35 | 1014.1 |
| 20260504214000 | 78 | 128 | 3.5 | 7.0 | 0.00 | 0.00 | 0.00 | 36 | 1013.7 |
| 20260504213456 | 79 | 227 | 5.2 | 6.1 | 0.00 | 0.00 | 0.00 | 35 | 1013.9 |
| 20260504212954 | 78 | 133 | 6.1 | 6.1 | 0.00 | 0.00 | 0.00 | 34 | 1013.9 |
| 20260504212450 | 78 | 125 | 2.6 | 6.1 | 0.00 | 0.00 | 0.00 | 34 | 1013.8 |
| 20260504211948 | 78 | 169 | 3.5 | 8.7 | 0.00 | 0.00 | 0.00 | 34 | 1013.8 |
| 20260504211444 | 79 | 186 | 2.6 | 5.2 | 0.00 | 0.00 | 0.00 | 34 | 1013.9 |
| 20260504210942 | 79 | 245 | 6.1 | 7.8 | 0.00 | 0.00 | 0.00 | 35 | 1014.0 |
| 20260504210438 | 79 | 139 | 2.6 | 5.2 | 0.00 | 0.00 | 0.00 | 35 | 1014.1 |
| 20260504205935 | 79 | 196 | 2.6 | 3.5 | 0.00 | 0.00 | 0.00 | 36 | 1013.9 |
| 20260504205433 | 78 | 209 | 1.7 | 6.1 | 0.00 | 0.00 | 0.00 | 37 | 1013.9 |
| 20260504204931 | 78 | 124 | 5.2 | 10.4 | 0.00 | 0.00 | 0.00 | 33 | 1014.1 |
| 20260504204429 | 78 | 150 | 1.7 | 4.3 | 0.00 | 0.00 | 0.00 | 35 | 1014.3 |
| 20260504203928 | 78 | 136 | 4.3 | 5.2 | 0.00 | 0.00 | 0.00 | 35 | 1014.4 |
| 20260504203425 | 78 | 37 | 2.6 | 4.3 | 0.00 | 0.00 | 0.00 | 32 | 1014.3 |
| 20260504202921 | 79 | 329 | 1.7 | 3.5 | 0.00 | 0.00 | 0.00 | 33 | 1014.5 |
| 20260504202418 | 78 | 198 | 3.5 | 3.5 | 0.00 | 0.00 | 0.00 | 33 | 1014.6 |
| 20260504201914 | 77 | 266 | 6.1 | 8.7 | 0.00 | 0.00 | 0.00 | 33 | 1014.6 |
| 20260504201412 | 80 | 261 | 2.6 | 3.5 | 0.00 | 0.00 | 0.00 | 34 | 1014.7 |
| 20260504200909 | 79 | 142 | 0.0 | 2.6 | 0.00 | 0.00 | 0.00 | 35 | 1014.8 |
| 20260504200406 | 77 | 266 | 1.7 | 4.3 | 0.00 | 0.00 | 0.00 | 36 | 1014.8 |
| 20260504195903 | 77 | 320 | 2.6 | 2.6 | 0.00 | 0.00 | 0.00 | 35 | 1014.8 |
| 20260504195358 | 77 | 267 | 3.5 | 4.3 | 0.00 | 0.00 | 0.00 | 34 | 1014.9 |
| 20260504194855 | 78 | 237 | 7.8 | 8.7 | 0.00 | 0.00 | 0.00 | 34 | 1015.0 |
| 20260504194351 | 77 | 174 | 2.6 | 6.1 | 0.00 | 0.00 | 0.00 | 34 | 1015.1 |
| 20260504193847 | 77 | 183 | 3.5 | 4.3 | 0.00 | 0.00 | 0.00 | 37 | 1015.1 |
| 20260504193344 | 77 | 178 | 2.6 | 7.8 | 0.00 | 0.00 | 0.00 | 34 | 1015.1 |
| 20260504192843 | 77 | 219 | 3.5 | 8.7 | 0.00 | 0.00 | 0.00 | 37 | 1015.3 |
| 20260504192340 | 77 | 162 | 2.6 | 7.8 | 0.00 | 0.00 | 0.00 | 36 | 1015.4 |
| 20260504191838 | 76 | 57 | 1.7 | 5.2 | 0.00 | 0.00 | 0.00 | 35 | 1015.3 |
| 20260504191336 | 77 | 56 | 0.9 | 6.1 | 0.00 | 0.00 | 0.00 | 38 | 1015.4 |
| 20260504190831 | 76 | 313 | 0.9 | 7.0 | 0.00 | 0.00 | 0.00 | 34 | 1015.7 |
| 20260504190327 | 76 | 43 | 0.9 | 4.3 | 0.00 | 0.00 | 0.00 | 35 | 1015.7 |
| 20260504185824 | 75 | 276 | 3.5 | 4.3 | 0.00 | 0.00 | 0.00 | 35 | 1015.8 |
| 20260504185321 | 75 | 241 | 5.2 | 5.2 | 0.00 | 0.00 | 0.00 | 34 | 1015.8 |
| 20260504184817 | 76 | 278 | 2.6 | 5.2 | 0.00 | 0.00 | 0.00 | 33 | 1015.6 |
| 20260504184313 | 76 | 269 | 2.6 | 5.2 | 0.00 | 0.00 | 0.00 | 33 | 1015.9 |
| 20260504183809 | 75 | 243 | 2.6 | 3.5 | 0.00 | 0.00 | 0.00 | 33 | 1016.0 |
| 20260504183307 | 75 | 25 | 0.9 | 2.6 | 0.00 | 0.00 | 0.00 | 33 | 1016.3 |
| 20260504182804 | 76 | 204 | 3.5 | 7.0 | 0.00 | 0.00 | 0.00 | 31 | 1016.1 |
| 20260504182301 | 76 | 154 | 3.5 | 5.2 | 0.00 | 0.00 | 0.00 | 32 | 1016.1 |
| 20260504181759 | 75 | 134 | 4.3 | 7.8 | 0.00 | 0.00 | 0.00 | 37 | 1016.0 |
| 20260504181256 | 75 | 109 | 3.5 | 6.1 | 0.00 | 0.00 | 0.00 | 33 | 1016.3 |
| 20260504180755 | 75 | 189 | 1.7 | 3.5 | 0.00 | 0.00 | 0.00 | 35 | 1016.1 |
| 20260504180253 | 75 | 99 | 4.3 | 5.2 | 0.00 | 0.00 | 0.00 | 35 | 1016.1 |
| 20260504175750 | 75 | 170 | 3.5 | 7.0 | 0.00 | 0.00 | 0.00 | 33 | 1016.4 |
| 20260504175247 | 75 | 25 | 0.0 | 4.3 | 0.00 | 0.00 | 0.00 | 33 | 1016.5 |
| 20260504174745 | 74 | 277 | 1.7 | 3.5 | 0.00 | 0.00 | 0.00 | 35 | 1016.5 |
| 20260504174243 | 74 | 229 | 4.3 | 4.3 | 0.00 | 0.00 | 0.00 | 35 | 1016.5 |
| 20260504173739 | 73 | 71 | 0.9 | 2.6 | 0.00 | 0.00 | 0.00 | 35 | 1016.6 |
| 20260504173236 | 73 | 111 | 7.8 | 9.6 | 0.00 | 0.00 | 0.00 | 35 | 1016.8 |
| 20260504172733 | 74 | 74 | 7.8 | 8.7 | 0.00 | 0.00 | 0.00 | 37 | 1016.8 |
| 20260504172229 | 74 | 153 | 4.3 | 8.7 | 0.00 | 0.00 | 0.00 | 36 | 1016.9 |
| 20260504171726 | 74 | 126 | 2.6 | 7.0 | 0.00 | 0.00 | 0.00 | 37 | 1017.0 |
| 20260504171223 | 73 | 242 | 3.5 | 3.5 | 0.00 | 0.00 | 0.00 | 38 | 1016.7 |
| 20260504170720 | 73 | 61 | 1.7 | 4.3 | 0.00 | 0.00 | 0.00 | 37 | 1017.0 |
| 20260504170217 | 73 | 82 | 3.5 | 7.8 | 0.00 | 0.00 | 0.00 | 39 | 1017.0 |
| 20260504160135 | 72 | 210 | 1.7 | 2.6 | 0.00 | 0.00 | 0.00 | 37 | 1017.8 |
| 20260504151103 | 70 | 300 | 5.2 | 5.2 | 0.00 | 0.00 | 0.00 | 42 | 1017.7 |
| 20260504150600 | 70 | 70 | 4.3 | 7.8 | 0.00 | 0.00 | 0.00 | 41 | 1017.7 |
| 20260504141026 | 70 | 197 | 4.3 | 4.3 | 0.00 | 0.00 | 0.00 | 40 | 1017.8 |
| 20260504140522 | 69 | 103 | 1.7 | 4.3 | 0.00 | 0.00 | 0.00 | 45 | 1017.8 |
| 20260504130447 | 64 | 132 | 1.7 | 1.7 | 0.00 | 0.00 | 0.00 | 70 | 1017.9 |
| 20260504110334 | 42 | 151 | 1.7 | 1.7 | 0.00 | 0.00 | 0.00 | 99 | 1017.5 |
| 20260504100251 | 44 | 130 | 1.7 | 1.7 | 0.00 | 0.00 | 0.00 | 99 | 1017.3 |
| 20260504081645 | 45 | 151 | 0.0 | 0.9 | 0.00 | 0.00 | 0.00 | 99 | 1017.8 |
| 20260504081141 | 45 | 138 | 1.7 | 1.7 | 0.00 | 0.00 | 0.00 | 99 | 1017.8 |
| 20260504080637 | 45 | 164 | 0.0 | 0.9 | 0.00 | 0.00 | 0.00 | 99 | 1017.8 |
| 20260504080134 | 45 | 135 | 0.9 | 1.7 | 0.00 | 0.00 | 0.00 | 99 | 1017.7 |
| 20260504050450 | 48 | 151 | 0.0 | 1.7 | 0.00 | 0.00 | 0.00 | 98 | 1018.9 |
| 20260504045947 | 48 | 141 | 0.0 | 0.9 | 0.00 | 0.00 | 0.00 | 97 | 1018.8 |
| 20260504045443 | 48 | 154 | 0.0 | 0.9 | 0.00 | 0.00 | 0.00 | 97 | 1018.7 |
| 20260504044939 | 48 | 191 | 0.0 | 1.7 | 0.00 | 0.00 | 0.00 | 97 | 1018.6 |
| 20260504044437 | 48 | 138 | 1.7 | 2.6 | 0.00 | 0.00 | 0.00 | 97 | 1018.6 |
| 20260504043934 | 48 | 234 | 0.9 | 1.7 | 0.00 | 0.00 | 0.00 | 97 | 1018.5 |
| 20260504043431 | 49 | 159 | 0.9 | 1.7 | 0.00 | 0.00 | 0.00 | 96 | 1018.4 |
| 20260504042929 | 49 | 121 | 1.7 | 1.7 | 0.00 | 0.00 | 0.00 | 96 | 1018.4 |
| 20260504042425 | 49 | 224 | 0.0 | 0.9 | 0.00 | 0.00 | 0.00 | 94 | 1018.5 |
| 20260504041922 | 49 | 158 | 1.7 | 1.7 | 0.00 | 0.00 | 0.00 | 94 | 1018.5 |
| 20260504041418 | 49 | 153 | 0.9 | 1.7 | 0.00 | 0.00 | 0.00 | 94 | 1018.5 |
| 20260504040914 | 49 | 135 | 0.0 | 1.7 | 0.00 | 0.00 | 0.00 | 94 | 1018.4 |
| 20260504040412 | 49 | 212 | 0.0 | 1.7 | 0.00 | 0.00 | 0.00 | 93 | 1018.3 |
| 20260504035908 | 50 | 169 | 1.7 | 1.7 | 0.00 | 0.00 | 0.00 | 93 | 1018.3 |
| 20260504035405 | 50 | 171 | 0.0 | 0.9 | 0.00 | 0.00 | 0.00 | 93 | 1018.3 |
| 20260504034902 | 50 | 146 | 0.9 | 1.7 | 0.00 | 0.00 | 0.00 | 92 | 1018.4 |
| 20260504034359 | 50 | 145 | 1.7 | 2.6 | 0.00 | 0.00 | 0.00 | 91 | 1018.3 |
| 20260504033856 | 50 | 143 | 1.7 | 2.6 | 0.00 | 0.00 | 0.00 | 91 | 1018.5 |
| 20260504033354 | 50 | 250 | 1.7 | 1.7 | 0.00 | 0.00 | 0.00 | 92 | 1018.4 |
| 20260504032850 | 50 | 148 | 0.9 | 1.7 | 0.00 | 0.00 | 0.00 | 90 | 1018.4 |
| 20260504032347 | 51 | 162 | 1.7 | 1.7 | 0.00 | 0.00 | 0.00 | 91 | 1018.4 |
| 20260504031844 | 51 | 195 | 1.7 | 1.7 | 0.00 | 0.00 | 0.00 | 91 | 1018.2 |
| 20260504031342 | 51 | 153 | 0.9 | 1.7 | 0.00 | 0.00 | 0.00 | 91 | 1018.4 |
| 20260504030838 | 51 | 106 | 2.6 | 2.6 | 0.00 | 0.00 | 0.00 | 90 | 1018.4 |
| 20260504030335 | 51 | 130 | 1.7 | 1.7 | 0.00 | 0.00 | 0.00 | 88 | 1018.2 |
| 20260504025831 | 51 | 129 | 0.0 | 0.0 | 0.00 | 0.00 | 0.00 | 88 | 1018.3 |
| 20260504025328 | 52 | 248 | 1.7 | 2.6 | 0.00 | 0.00 | 0.00 | 87 | 1018.5 |
| 20260504024825 | 52 | 150 | 1.7 | 1.7 | 0.00 | 0.00 | 0.00 | 86 | 1018.4 |
| 20260504024321 | 52 | 149 | 1.7 | 1.7 | 0.00 | 0.00 | 0.00 | 85 | 1018.5 |
| 20260504023818 | 52 | 158 | 1.7 | 1.7 | 0.00 | 0.00 | 0.00 | 83 | 1018.2 |
| 20260504023315 | 52 | 135 | 1.7 | 1.7 | 0.00 | 0.00 | 0.00 | 82 | 1018.2 |
| 20260504022811 | 53 | 119 | 0.0 | 0.9 | 0.00 | 0.00 | 0.00 | 82 | 1018.3 |
| 20260504022308 | 53 | 77 | 0.9 | 0.9 | 0.00 | 0.00 | 0.00 | 81 | 1018.2 |
| 20260504021804 | 53 | 66 | 0.0 | 0.9 | 0.00 | 0.00 | 0.00 | 82 | 1018.3 |
| 20260504021302 | 53 | 159 | 0.9 | 0.9 | 0.00 | 0.00 | 0.00 | 81 | 1018.3 |
| 20260504020758 | 54 | 186 | 0.9 | 1.7 | 0.00 | 0.00 | 0.00 | 77 | 1018.1 |
| 20260504020255 | 54 | 161 | 1.7 | 1.7 | 0.00 | 0.00 | 0.00 | 76 | 1018.2 |
| 20260504015751 | 54 | 137 | 0.9 | 0.9 | 0.00 | 0.00 | 0.00 | 79 | 1018.1 |
| 20260504015248 | 54 | 133 | 0.9 | 0.9 | 0.00 | 0.00 | 0.00 | 79 | 1018.0 |
| 20260504014743 | 55 | 117 | 0.0 | 1.7 | 0.00 | 0.00 | 0.00 | 78 | 1017.9 |
| 20260504014240 | 55 | 130 | 0.0 | 0.0 | 0.00 | 0.00 | 0.00 | 77 | 1017.9 |
| 20260504013738 | 55 | 180 | 0.0 | 0.9 | 0.00 | 0.00 | 0.00 | 66 | 1017.9 |
| 20260504013235 | 56 | 156 | 0.9 | 1.7 | 0.00 | 0.00 | 0.00 | 71 | 1017.7 |
| 20260504012732 | 56 | 146 | 1.7 | 1.7 | 0.00 | 0.00 | 0.00 | 74 | 1017.6 |
| 20260504012230 | 57 | 224 | 0.0 | 0.0 | 0.00 | 0.00 | 0.00 | 68 | 1017.4 |
| 20260504011726 | 57 | 50 | 0.0 | 0.0 | 0.00 | 0.00 | 0.00 | 64 | 1017.4 |
| 20260504011223 | 57 | 129 | 0.0 | 0.9 | 0.00 | 0.00 | 0.00 | 71 | 1017.6 |
| 20260504010719 | 58 | 156 | 0.9 | 1.7 | 0.00 | 0.00 | 0.00 | 61 | 1017.2 |
| 20260504010215 | 59 | 171 | 0.9 | 1.7 | 0.00 | 0.00 | 0.00 | 72 | 1017.2 |
| 20260504005711 | 59 | 175 | 0.9 | 1.7 | 0.00 | 0.00 | 0.00 | 59 | 1017.1 |
| 20260504005209 | 59 | 198 | 1.7 | 1.7 | 0.00 | 0.00 | 0.00 | 55 | 1017.1 |
| 20260504004707 | 60 | 183 | 1.7 | 1.7 | 0.00 | 0.00 | 0.00 | 55 | 1017.1 |
| 20260504004203 | 60 | 192 | 1.7 | 1.7 | 0.00 | 0.00 | 0.00 | 53 | 1017.1 |
| 20260504003700 | 61 | 179 | 0.9 | 1.7 | 0.00 | 0.00 | 0.00 | 52 | 1016.9 |
| 20260504003157 | 62 | 177 | 1.7 | 1.7 | 0.00 | 0.00 | 0.00 | 52 | 1016.8 |
| 20260504002653 | 63 | 181 | 0.9 | 1.7 | 0.00 | 0.00 | 0.00 | 51 | 1016.9 |
| 20260504002151 | 65 | 191 | 1.7 | 1.7 | 0.00 | 0.00 | 0.00 | 48 | 1016.8 |
| 20260504001649 | 66 | 138 | 1.7 | 1.7 | 0.00 | 0.00 | 0.00 | 43 | 1017.0 |
| 20260504001144 | 66 | 113 | 0.9 | 0.9 | 0.00 | 0.00 | 0.00 | 43 | 1016.8 |
| 20260504000642 | 67 | 32 | 0.0 | 0.9 | 0.00 | 0.00 | 0.00 | 41 | 1016.9 |
| 20260504000139 | 68 | 20 | 1.7 | 2.6 | 0.00 | 0.00 | 0.00 | 40 | 1016.8 |
| 20260503235637 | 68 | 3 | 1.7 | 1.7 | 0.00 | 0.00 | 0.00 | 39 | 1016.8 |
| 20260503235133 | 69 | 302 | 2.6 | 3.5 | 0.00 | 0.00 | 0.00 | 37 | 1016.7 |
| 20260503234632 | 70 | 348 | 2.6 | 3.5 | 0.00 | 0.00 | 0.00 | 37 | 1016.8 |
| 20260503234130 | 70 | 2 | 0.9 | 2.6 | 0.00 | 0.00 | 0.00 | 37 | 1016.9 |
| 20260503233626 | 70 | 332 | 5.2 | 6.1 | 0.00 | 0.00 | 0.00 | 36 | 1016.8 |
| 20260503233122 | 71 | 325 | 4.3 | 5.2 | 0.00 | 0.00 | 0.00 | 36 | 1016.7 |
| 20260503232619 | 71 | 20 | 1.7 | 3.5 | 0.00 | 0.00 | 0.00 | 35 | 1016.7 |
| 20260503232116 | 71 | 60 | 1.7 | 3.5 | 0.00 | 0.00 | 0.00 | 36 | 1016.7 |
| 20260503231614 | 71 | 4 | 3.5 | 3.5 | 0.00 | 0.00 | 0.00 | 36 | 1016.8 |
| 20260503231110 | 72 | 13 | 5.2 | 7.8 | 0.00 | 0.00 | 0.00 | 34 | 1016.9 |
| 20260503230608 | 71 | 297 | 1.7 | 4.3 | 0.00 | 0.00 | 0.00 | 36 | 1016.7 |
| 20260503230104 | 72 | 309 | 5.2 | 5.2 | 0.00 | 0.00 | 0.00 | 34 | 1016.7 |
| 20260503225602 | 72 | 322 | 4.3 | 5.2 | 0.00 | 0.00 | 0.00 | 35 | 1016.8 |
| 20260503225056 | 72 | 331 | 3.5 | 6.1 | 0.00 | 0.00 | 0.00 | 34 | 1016.9 |
| 20260503224554 | 72 | 323 | 2.6 | 4.3 | 0.00 | 0.00 | 0.00 | 36 | 1016.9 |
| 20260503224052 | 72 | 354 | 3.5 | 7.0 | 0.00 | 0.00 | 0.00 | 36 | 1016.9 |
| 20260503223550 | 72 | 336 | 2.6 | 4.3 | 0.00 | 0.00 | 0.00 | 36 | 1016.8 |
| 20260503223045 | 72 | 0 | 4.3 | 7.0 | 0.00 | 0.00 | 0.00 | 34 | 1016.8 |
| 20260503222543 | 72 | 329 | 5.2 | 7.8 | 0.00 | 0.00 | 0.00 | 37 | 1016.8 |
| 20260503222041 | 72 | 246 | 3.5 | 8.7 | 0.00 | 0.00 | 0.00 | 36 | 1016.8 |
| 20260503221539 | 73 | 343 | 5.2 | 6.1 | 0.00 | 0.00 | 0.00 | 35 | 1016.9 |
| 20260503221036 | 73 | 287 | 3.5 | 4.3 | 0.00 | 0.00 | 0.00 | 34 | 1016.8 |
| 20260503220532 | 72 | 297 | 0.9 | 5.2 | 0.00 | 0.00 | 0.00 | 34 | 1016.8 |
| 20260503220029 | 72 | 303 | 5.2 | 7.0 | 0.00 | 0.00 | 0.00 | 34 | 1016.9 |
| 20260503215526 | 72 | 356 | 3.5 | 5.2 | 0.00 | 0.00 | 0.00 | 34 | 1016.8 |